Flight Track Log - Related Links

Times and Time Zones

All times are in EDT time to prevent confusion due to time zone crossing. See the N450S flight status page for this flight to view local times or setup timezone preferences in your user account.

Time Position Orientation Groundspeed Altitude Reporting Facility
EDT Latitude Longitude Course Direction KTS MPH feet Rate Location/Type
Thu 01:48:30 PM 41.5083 -81.7033 305° West 131 151 1,200  Level Cleveland Center
Thu 01:49:06 PM 41.5228 -81.7314 305° West 174 200 2,000 1,237 Climbing Cleveland Center
Thu 01:50:07 PM 41.5683 -81.7656 331° Northwest 213 245 3,200 1,547 Climbing Cleveland Center
Thu 01:51:14 PM 41.5736 -81.8350 276° West 141 162 5,300 1,934 Climbing Cleveland Center
Thu 01:52:08 PM 41.5586 -81.8706 241° Southwest 139 160 7,100 1,930 Climbing Cleveland Center
Thu 01:53:09 PM 41.5394 -81.9231 244° Southwest 137 158 9,000 905 Climbing Cleveland Center
Thu 01:54:14 PM 41.5158 -81.9836 243° Southwest 169 194 9,000 48 Level Cleveland Center
Thu 01:55:14 PM 41.4856 -82.0522 240° Southwest 204 235 9,100 950 Climbing Cleveland Center
Thu 01:56:14 PM 41.4619 -82.1153 243° Southwest 208 239 10,900 1,800 Climbing Cleveland Center
Thu 01:57:14 PM 41.4444 -82.1647 245° Southwest 167 192 12,700 1,550 Climbing Cleveland Center
Thu 01:58:14 PM 41.4250 -82.2142 242° Southwest 151 174 14,000 1,400 Climbing Cleveland Center
Thu 01:59:14 PM 41.4056 -82.2636 242° Southwest 151 174 15,500 1,450 Climbing Cleveland Center
Thu 02:00:14 PM 41.3903 -82.3075 245° Southwest 151 174 16,900 900 Climbing Cleveland Center
Thu 02:01:14 PM 41.3667 -82.3594 239° Southwest 157 181 17,300 550 Climbing Cleveland Center
Thu 02:02:14 PM 41.3469 -82.4169 245° Southwest 172 198 18,000 350 Climbing Cleveland Center
Thu 02:03:14 PM 41.3208 -82.4797 241° Southwest 182 209 18,000  Level Cleveland Center
Thu 02:04:14 PM 41.3031 -82.5511 252° West 200 230 18,000  Level Cleveland Center
Thu 02:05:14 PM 41.2933 -82.6283 261° West 206 237 18,000  Level Cleveland Center
Thu 02:06:14 PM 41.2836 -82.7025 260° West 211 243 18,000  Level Cleveland Center
Thu 02:07:14 PM 41.2694 -82.7878 258° West 216 249 18,000  Level Cleveland Center
Thu 02:08:14 PM 41.2617 -82.8647 262° West 216 249 18,000  Level Cleveland Center
Thu 02:09:14 PM 41.2519 -82.9392 260° West 216 249 18,000  Level Cleveland Center
Thu 02:10:14 PM 41.2483 -83.0136 266° West 216 249 18,000  Level Cleveland Center
Thu 02:11:14 PM 41.2739 -83.0864 295° West 209 241 18,000  Level Cleveland Center
Thu 02:12:14 PM 41.2972 -83.1564 294° West 214 246 18,000  Level Cleveland Center
Thu 02:13:14 PM 41.3206 -83.2292 293° West 214 246 18,000  Level Cleveland Center
Thu 02:14:14 PM 41.3439 -83.3047 292° West 214 246 18,000  Level Cleveland Center
Thu 02:15:14 PM 41.3672 -83.3750 294° West 214 246 18,000  Level Cleveland Center
Thu 02:16:14 PM 41.3903 -83.4478 293° West 214 246 18,000  Level Cleveland Center
Thu 02:17:14 PM 41.4136 -83.5208 293° West 214 246 18,000  Level Cleveland Center
Thu 02:18:14 PM 41.4367 -83.5967 292° West 214 246 18,000  Level Cleveland Center
Thu 02:19:14 PM 41.4514 -83.6694 285° West 214 246 18,000  Level Cleveland Center
Thu 02:20:14 PM 41.4556 -83.7500 274° West 214 246 18,000  Level Cleveland Center
Thu 02:21:14 PM 41.4575 -83.8278 272° West 214 246 18,000  Level Cleveland Center
Thu 02:22:14 PM 41.4614 -83.9056 274° West 214 246 18,000  Level Cleveland Center
Thu 02:23:14 PM 41.4633 -83.9833 272° West 214 246 18,000  Level Cleveland Center
Thu 02:24:14 PM 41.4669 -84.0667 273° West 214 246 18,000  Level Cleveland Center
Thu 02:25:14 PM 41.4708 -84.1444 274° West 214 246 18,000  Level Cleveland Center
Thu 02:26:14 PM 41.4725 -84.2278 272° West 214 246 18,000  Level Cleveland Center
Thu 02:27:14 PM 41.4783 -84.3000 276° West 219 252 18,000  Level Cleveland Center
Thu 02:28:14 PM 41.4819 -84.3808 273° West 219 252 18,000  Level Cleveland Center
Thu 02:29:14 PM 41.4836 -84.4611 272° West 219 252 18,000  Level Cleveland Center
Thu 02:30:14 PM 41.4869 -84.5417 273° West 219 252 18,000  Level Cleveland Center
Thu 02:31:14 PM 41.4906 -84.6225 273° West 219 252 18,000  Level Cleveland Center
Thu 02:32:14 PM 41.4917 -84.7058 271° West 219 252 18,000  Level Cleveland Center
Thu 02:33:28 PM 41.4933 -84.8008 271° West 220 253 18,000  Level Chicago Center
Thu 02:34:30 PM 41.4958 -84.8828 272° West 222 255 18,000  Level Chicago Center
Thu 02:35:32 PM 41.4989 -84.9808 272° West 220 253 18,000  Level Chicago Center
Thu 02:36:34 PM 41.5014 -85.0622 272° West 220 253 18,000 -145 Level Chicago Center
Thu 02:37:36 PM 41.5036 -85.1450 272° West 223 257 17,700 -242 Descending Chicago Center
Thu 02:38:38 PM 41.5058 -85.2297 272° West 226 260 17,500 -480 Descending Chicago Center
Thu 02:39:41 PM 41.5086 -85.3153 273° West 228 262 16,700 -864 Descending Chicago Center
Thu 02:40:43 PM 41.5108 -85.4017 272° West 231 266 15,700 -919 Descending Chicago Center
Thu 02:41:45 PM 41.5133 -85.4892 272° West 233 268 14,800 -871 Descending Chicago Center
Thu 02:42:47 PM 41.5147 -85.5747 271° West 229 264 13,900 -968 Descending Chicago Center
Thu 02:43:49 PM 41.5172 -85.6758 272° West 227 261 12,800 -968 Descending Chicago Center
Thu 02:44:51 PM 41.5194 -85.7594 272° West 226 260 11,900 -823 Descending Chicago Center
Thu 02:45:53 PM 41.5208 -85.8425 271° West 225 259 11,100 -823 Descending Chicago Center
Thu 02:46:55 PM 41.5228 -85.9292 272° West 232 267 10,200 -532 Descending Chicago Center
Thu 02:47:57 PM 41.5244 -86.0167 271° West 236 272 10,000 -97 Descending Chicago Center
Thu 02:48:59 PM 41.5244 -86.1022 270° West 233 268 10,000  Level Chicago Center
Thu 02:50:00 PM 41.5223 -86.1817 268° West  Level FlightAware Approximate
Thu 02:50:01 PM 41.5233 -86.2000 268° West 221 254 10,000  Level Chicago Center
Thu 02:51:03 PM 41.5231 -86.2847 270° West 227 261 9,700 -484 Descending Chicago Center
Thu 02:52:05 PM 41.5228 -86.3711 270° West 232 267 9,000 -432 Descending Chicago Center
Thu 02:53:08 PM 41.5231 -86.4572 270° West 233 268 8,800 -528 Descending Chicago Center
Thu 02:54:10 PM 41.5217 -86.5433 269° West 234 269 7,900 -823 Descending Chicago Center
Thu 02:55:12 PM 41.5214 -86.6278 270° West 230 265 7,100 -823 Descending Chicago Center
Thu 02:56:14 PM 41.5214 -86.7186 270° West 231 266 6,200 -532 Descending Chicago Center
Thu 02:57:16 PM 41.5194 -86.8175 269° West 224 258 6,000 -97 Descending Chicago Center
Thu 02:58:18 PM 41.5189 -86.8939 269° West 212 244 6,000  Level Chicago Center
Thu 02:59:20 PM 41.5167 -86.9703 268° West 207 238 6,000  Level Chicago Center
Thu 03:00:22 PM 41.5158 -87.0483 269° West 211 243 6,000  Level Chicago Center
Thu 03:01:24 PM 41.5172 -87.1256 271° West 210 242 6,000 -156 Level Chicago Center
Thu 03:01:39 PM 41.5167 -87.1667 269° West 211 243 5,800 -800 Descending Chicago TRACON
Thu 03:02:39 PM 41.5167 -87.2500 270° West 225 259 5,000 -579 Descending Chicago TRACON
Thu 03:03:33 PM 41.5000 -87.3000 246° West 233 268 4,700 -417 Descending Chicago TRACON
Thu 03:04:34 PM 41.5000 -87.3667 270° West 224 258 4,200 -347 Descending Chicago TRACON
Thu 03:05:34 PM 41.5500 -87.4167 323° Northwest 211 243 4,000 -99 Descending Chicago TRACON
Thu 03:06:35 PM 41.5750 -87.4542 312° West 208 239 4,000  Level Chicago Center
Thu 03:07:37 PM 41.6119 -87.5114 311° West 186 214 4,000  Level Chicago Center
Thu 03:08:39 PM 41.6439 -87.5619 310° West 180 207 4,000 -97 Level Chicago Center
Thu 03:09:41 PM 41.6794 -87.6056 318° Northwest 178 205 3,800 -677 Descending Chicago Center
Thu 03:10:43 PM 41.7139 -87.6536 314° West 178 205 2,600 -1,062 Descending Chicago Center
Thu 03:11:34 PM 41.7500 -87.7000 316° Northwest 155 178 1,800 -865 Descending Chicago TRACON
Thu 03:12:34 PM 41.7667 -87.7333 304° West 127 146 1,000 -800 Descending Chicago TRACON
Thu 03:14:00 PM 41.7833 -87.7500 334° Northwest  Level FlightAware Approximate
Thu 03:21:00 PM 41.7860 -87.7524 334° Northwest  Level Estimated

Login

Don't have an account? Register now (free) for customized features, flight alerts, and more!